STARLINK-1445, 45662

Orbit data source: Space-Track

STARLINK-1445, 45662 is a payload satellite owned by SpaceX/Seattle (US) in LEO that was launched on Thu, 04 Jun 2020 UTC via an FALCON 9 launch vehicle from the Air Force Eastern Test Range (AFETR). Payloads include a variety of satellites, spacecraft, and rockets equipped with specific instruments for various scientific and technological missions. These include communications satellites like Starlink; space stations such as the ISS; scientific satellites like the Hubble; Earth observation satellites from companies like Planet Labs, Umbra, and HawkEye 360; GPS; miniature CubeSats for education and research; and military/defense satellites.

Not visible in the next 10 days
STARLINK-1445 details
Identifier
45662, 2020-035F
Orbit
LEO
Last TLE update9 hours ago
Origin
Flag of USSpaceX/Seattle (US)
ManufacturerSpaceX/Seattle
MissionPartially operational Commercial Communications
Bus & MotorSTARLINK, Unknown motor
Mass260 kg wet, ~248 kg dry
Launch date (UTC)
2020-06-04 (5 years ago)
Launch vehicle
FALCON 9
Launch site
Air Force Eastern Test Range (AFETR)
Object type
Payload
Rocket body
Debris
Shape & HBRBox + 1 Pan, 8.86 m
Radar Cross Section13.562 m², Large (>1 m²)

Expand to show TLE details & history

TLE from 9 hours ago
0 STARLINK-1445
1 45662U 20035F   24348.02335727  .01038534  68388-3  91193-3 0  9999
2 45662  53.0482 264.7122 0006776 162.3713 197.7558 16.12530261250691
Epoch: 2024-12-13T00:33Z
Definitive object data (Epoch: 2024-12-13T00:33:38.068Z)
Latitude-0.00002°
Longitude174.10828°
Altitude245.101 km
Speed7.759 km/s
True Right ascension17h 38m 50s
True Declination0° 00' 00"
Sunlit
Object was in daylight at TLE epoch
Visualization TLE readout
Latitude-26.48563°
Longitude150.29958°
Altitude249.616 km
Speed7.755 km/s
Apparent Right ascension17h 45m 09s
Apparent Declination-36° 16' 56"
Sunlit
Object is in daylight
Visualization observer readout
Local Sidereal Time07:50:21
Azimuth91.627° ESE
Elevation-65.232°
Doppler factor1
Orbital elements
Apogee altitude244.68 km
Perigee altitude235.711 km
Semi-major axis6,618.332 km
Eccentricity0.0006776
Inclination53.0482°
RAAN264.7122°
Arg. of periapsis162.3713°
True anomaly197.73214°
Mean anomaly197.7558°
Eccentric anomaly197.74397°
Mean motion4.03107 °/min
BSTAR0.00091193
Orbital period89.31 mins
Loading maneuver chart data...

STARLINK-1445 Visibility forecast

Observer location: undefined°, undefined

STARLINK-1445 is not visible in the next 10 days
Span
Click to sort rows by Start time (UTC) header in descending order
Start Az.
Max El. time (UTC)
Max El. Az.
Max El.
End time (UTC)
End Az.
|